Hourly Weather Sieradz

Today, 8 July, Wednesday

Time Temperature Precipitation Wind Pressure Humidity
00:00 +12°C° 0 mm 3 mps 750 mmHg 73%
01:00 +12°C° 0 mm 3 mps 750 mmHg 72%
02:00 +12°C° 0 mm 3 mps 750 mmHg 73%
03:00 +12°C° 0 mm 4 mps 750 mmHg 74%
04:00 +12°C° 0 mm 4 mps 750 mmHg 76%
05:00 +13°C° 0.1 mm 4 mps 749 mmHg 77%
06:00 +13°C° 0.1 mm 4 mps 749 mmHg 79%
07:00 +13°C° 0 mm 3 mps 749 mmHg 80%
08:00 +13°C° 0 mm 4 mps 749 mmHg 79%
09:00 +13°C° 0 mm 4 mps 749 mmHg 79%
10:00 +13°C° 0 mm 4 mps 750 mmHg 78%
11:00 +14°C° 0.1 mm 5 mps 749 mmHg 76%
12:00 +14°C° 0.1 mm 5 mps 749 mmHg 74%
13:00 +15°C° 0.1 mm 5 mps 749 mmHg 72%
14:00 +15°C° 0.1 mm 5 mps 749 mmHg 74%
15:00 +15°C° 0.1 mm 5 mps 749 mmHg 75%
16:00 +15°C° 0.1 mm 5 mps 749 mmHg 76%
17:00 +15°C° 0.1 mm 5 mps 749 mmHg 78%
18:00 +15°C° 0.1 mm 4 mps 749 mmHg 81%
19:00 +14°C° 0.1 mm 3 mps 749 mmHg 83%
20:00 +13°C° 0 mm 3 mps 749 mmHg 86%
21:00 +13°C° 0 mm 3 mps 750 mmHg 89%
22:00 +12°C° 0 mm 3 mps 750 mmHg 92%
23:00 +12°C° 0 mm 3 mps 750 mmHg 93%

Tomorrow, 9 July, Thursday

Time Temperature Precipitation Wind Pressure Humidity
00:00 +11°C° 0 mm 3 mps 751 mmHg 94%
01:00 +11°C° 0 mm 3 mps 751 mmHg 96%
02:00 +10°C° 0 mm 3 mps 751 mmHg 96%
03:00 +10°C° 0 mm 3 mps 751 mmHg 96%
04:00 +10°C° 0 mm 3 mps 751 mmHg 96%
05:00 +11°C° 0 mm 3 mps 751 mmHg 92%
06:00 +13°C° 0 mm 3 mps 751 mmHg 88%
07:00 +14°C° 0 mm 3 mps 751 mmHg 84%
08:00 +16°C° 0 mm 3 mps 751 mmHg 77%
09:00 +18°C° 0 mm 3 mps 752 mmHg 71%
10:00 +19°C° 0 mm 3 mps 752 mmHg 65%
11:00 +20°C° 0 mm 3 mps 751 mmHg 63%
12:00 +20°C° 0 mm 3 mps 751 mmHg 61%
13:00 +21°C° 0 mm 3 mps 751 mmHg 59%
14:00 +21°C° 0 mm 3 mps 750 mmHg 60%
15:00 +21°C° 0 mm 4 mps 750 mmHg 61%
16:00 +21°C° 0 mm 4 mps 750 mmHg 62%
17:00 +20°C° 0.2 mm 3 mps 750 mmHg 69%
18:00 +19°C° 0.2 mm 2 mps 749 mmHg 75%
19:00 +18°C° 0.2 mm 2 mps 749 mmHg 82%
20:00 +18°C° 0.2 mm 2 mps 749 mmHg 85%
21:00 +17°C° 0.2 mm 2 mps 749 mmHg 88%
22:00 +17°C° 0.2 mm 3 mps 749 mmHg 90%
23:00 +17°C° 0 mm 3 mps 749 mmHg 91%

Day after tomorrow, 10 July, Friday

Time Temperature Precipitation Wind Pressure Humidity
00:00 +16°C° 0 mm 3 mps 749 mmHg 92%
01:00 +16°C° 0 mm 3 mps 748 mmHg 93%
02:00 +16°C° 0 mm 3 mps 748 mmHg 94%
03:00 +16°C° 0 mm 3 mps 748 mmHg 94%
04:00 +16°C° 0 mm 3 mps 748 mmHg 95%
05:00 +18°C° 0.1 mm 3 mps 748 mmHg 91%
06:00 +19°C° 0.1 mm 4 mps 747 mmHg 87%
07:00 +21°C° 0.1 mm 5 mps 747 mmHg 84%
08:00 +22°C° 0.2 mm 5 mps 747 mmHg 76%
09:00 +25°C° 0.2 mm 5 mps 747 mmHg 69%
10:00 +27°C° 0.2 mm 6 mps 747 mmHg 62%
11:00 +27°C° 0.1 mm 6 mps 747 mmHg 59%
12:00 +28°C° 0.1 mm 6 mps 747 mmHg 57%
13:00 +29°C° 0.1 mm 6 mps 746 mmHg 54%
14:00 +29°C° 0.1 mm 6 mps 746 mmHg 56%
15:00 +29°C° 0.1 mm 5 mps 746 mmHg 57%
16:00 +29°C° 0.1 mm 5 mps 746 mmHg 58%
17:00 +28°C° 0.3 mm 4 mps 746 mmHg 63%
18:00 +27°C° 0.3 mm 4 mps 746 mmHg 69%
19:00 +25°C° 0.3 mm 4 mps 746 mmHg 74%
20:00 +23°C° 2.4 mm 4 mps 746 mmHg 80%
21:00 +21°C° 2.4 mm 4 mps 746 mmHg 86%
22:00 +19°C° 2.4 mm 4 mps 746 mmHg 92%
23:00 +19°C° 1.2 mm 4 mps 746 mmHg 93%

11 July, Saturday

Time Temperature Precipitation Wind Pressure Humidity
00:00 +19°C° 1.2 mm 4 mps 747 mmHg 94%
01:00 +19°C° 1.2 mm 4 mps 747 mmHg 96%
02:00 +18°C° 1.8 mm 4 mps 747 mmHg 95%
03:00 +18°C° 1.8 mm 3 mps 748 mmHg 94%
04:00 +17°C° 1.8 mm 3 mps 748 mmHg 93%
05:00 +17°C° 0 mm 3 mps 748 mmHg 92%
06:00 +17°C° 0 mm 3 mps 749 mmHg 91%
07:00 +17°C° 0 mm 4 mps 749 mmHg 90%
08:00 +17°C° 0.1 mm 4 mps 750 mmHg 87%
09:00 +17°C° 0.1 mm 4 mps 751 mmHg 84%
10:00 +17°C° 0.1 mm 4 mps 751 mmHg 81%
11:00 +17°C° 0.7 mm 4 mps 752 mmHg 80%
12:00 +18°C° 0.7 mm 3 mps 752 mmHg 78%
13:00 +18°C° 0.7 mm 3 mps 752 mmHg 76%
14:00 +18°C° 0.1 mm 3 mps 752 mmHg 74%
15:00 +18°C° 0.1 mm 3 mps 753 mmHg 72%
16:00 +18°C° 0.1 mm 3 mps 753 mmHg 70%
17:00 +18°C° 0.1 mm 3 mps 753 mmHg 73%
18:00 +17°C° 0.1 mm 2 mps 753 mmHg 75%
19:00 +17°C° 0.1 mm 2 mps 754 mmHg 78%
20:00 +16°C° 0 mm 2 mps 754 mmHg 77%
21:00 +15°C° 0 mm 2 mps 754 mmHg 75%
22:00 +15°C° 0 mm 2 mps 754 mmHg 74%
23:00 +14°C° 0 mm 2 mps 754 mmHg 77%

12 July, Sunday

Time Temperature Precipitation Wind Pressure Humidity
00:00 +14°C° 0 mm 2 mps 754 mmHg 79%
01:00 +13°C° 0 mm 2 mps 754 mmHg 81%
02:00 +13°C° 0 mm 2 mps 754 mmHg 84%
03:00 +12°C° 0 mm 2 mps 755 mmHg 86%
04:00 +12°C° 0 mm 2 mps 755 mmHg 89%
05:00 +13°C° 0 mm 2 mps 755 mmHg 85%
06:00 +13°C° 0 mm 3 mps 755 mmHg 81%
07:00 +14°C° 0 mm 3 mps 756 mmHg 77%
08:00 +17°C° 0.1 mm 3 mps 756 mmHg 71%
09:00 +18°C° 0.1 mm 4 mps 756 mmHg 65%
10:00 +19°C° 0.1 mm 4 mps 756 mmHg 59%
11:00 +19°C° 0.1 mm 4 mps 756 mmHg 58%
12:00 +20°C° 0.1 mm 4 mps 756 mmHg 56%
13:00 +20°C° 0.1 mm 4 mps 756 mmHg 54%
14:00 +20°C° 0.2 mm 4 mps 755 mmHg 54%
15:00 +20°C° 0.2 mm 4 mps 755 mmHg 55%
16:00 +20°C° 0.2 mm 4 mps 755 mmHg 55%
17:00 +19°C° 0 mm 4 mps 755 mmHg 60%
18:00 +18°C° 0 mm 3 mps 755 mmHg 64%
19:00 +17°C° 0 mm 2 mps 755 mmHg 68%
20:00 +16°C° 0 mm 2 mps 756 mmHg 69%
21:00 +15°C° 0 mm 2 mps 756 mmHg 71%
22:00 +14°C° 0 mm 2 mps 756 mmHg 72%
23:00 +13°C° 0 mm 2 mps 756 mmHg 74%

13 July, Monday

Time Temperature Precipitation Wind Pressure Humidity
00:00 +13°C° 0 mm 2 mps 756 mmHg 76%
01:00 +12°C° 0 mm 2 mps 756 mmHg 79%
02:00 +12°C° 0 mm 2 mps 756 mmHg 80%
03:00 +12°C° 0 mm 2 mps 756 mmHg 82%
04:00 +10°C° 0 mm 2 mps 755 mmHg 84%
05:00 +13°C° 0 mm 2 mps 756 mmHg 80%
06:00 +14°C° 0 mm 2 mps 756 mmHg 77%
07:00 +16°C° 0 mm 3 mps 756 mmHg 73%
08:00 +17°C° 0 mm 3 mps 755 mmHg 68%
09:00 +18°C° 0 mm 4 mps 755 mmHg 64%
10:00 +19°C° 0 mm 4 mps 755 mmHg 59%
11:00 +20°C° 0 mm 4 mps 755 mmHg 57%
12:00 +21°C° 0 mm 4 mps 754 mmHg 55%
13:00 +21°C° 0 mm 4 mps 754 mmHg 53%
14:00 +21°C° 0 mm 4 mps 754 mmHg 54%
15:00 +21°C° 0 mm 3 mps 754 mmHg 55%
16:00 +21°C° 0 mm 3 mps 753 mmHg 56%
17:00 +20°C° 0 mm 3 mps 753 mmHg 62%
18:00 +19°C° 0 mm 2 mps 753 mmHg 68%
19:00 +18°C° 0 mm 2 mps 753 mmHg 74%
20:00 +17°C° 0 mm 2 mps 753 mmHg 76%
21:00 +16°C° 0 mm 1 mps 753 mmHg 79%
22:00 +15°C° 0 mm 1 mps 753 mmHg 82%
23:00 +14°C° 0 mm 1 mps 753 mmHg 83%
Show more